Regional Weather Roundup
Issued by NWS

Home | Current Version | Previous Version | Text Only | Print | Product List | Glossary Off
Versions: 1 2 3 4 5 6 7 8 9 10 11 12 13 14 15 16 17 18 19 20 21 22 23 24 25 26 27 28 29 30 31 32 33 34 35 36 37 38 39 40 41 42 43 44 45 46 47 48 49 50

000
ASUS45 KABQ 250710
RWRNM
NEW MEXICO REGIONAL WEATHER ROUNDUP
NATIONAL WEATHER SERVICE ALBUQUERQUE NM
100 AM MDT THU MAY 25 2017

NOTE: "FAIR" MEANS FEW OR NO CLOUDS BELOW 12,000 FEET AGL WITH NO
       SIGNIFICANT WEATHER OR OBSTRUCTIONS TO VISION.

      THIS PRODUCT IS RELEASED AS TWO VERSIONS.  ONE VERSION NEAR
      THE TOP OF THE HOUR CONTAINING PRELIMINARY DATA FROM ALBUQUERQUE
      AND OTHER STATIONS.  A FINAL VERSION WITH ADDITIONAL DATA IS
      ISSUED ABOUT 10 MINUTES AFTER THE HOUR.

NMZ501-503-504-510>518-250800-
NORTHWEST PLATEAU/NORTHCENTRAL MOUNTAINS

CITY           SKY/WX    TMP DP  RH WIND       PRES   REMARKS
FARMINGTON     FAIR      67  26  21 W14       29.75S
LOS ALAMOS     FAIR      68  18  15 W20G28    29.91S
SANTA FE       FAIR      58  23  26 CALM      29.85S
TAOS           FAIR      45  21  39 CALM      29.89S
ANGEL FIRE     FAIR      38  29  71 CALM      29.95F

$$
NMZ402-403-502-505>509-250800-
WESTCENTRAL MOUNTAINS/SOUTHWEST MOUNTAINS

CITY           SKY/WX    TMP DP  RH WIND       PRES   REMARKS
GALLUP         FAIR      64  23  21 SW13      29.91S
GRANTS         FAIR      67  20  16 W18G28    29.93F
SILVER CITY    FAIR      53  20  28 N9        29.92R

$$
NMZ407-409-411-412-250800-
SOUTHERN DESERTS

CITY           SKY/WX    TMP DP  RH WIND       PRES   REMARKS
DEMING         FAIR      65  19  17 SW3       29.85R
LAS CRUCES     FAIR      70  16  13 W13       29.83R
HOLLOMAN AFB   FAIR      70  18  14 E5        29.79S
ALAMOGORDO     FAIR      72  18  13 E6        29.78F
T OR C         FAIR      76  17  11 NW9       29.81S

$$
NMZ519>523-250800-
CENTRAL VALLEYS/CENTRAL HIGHLANDS

CITY           SKY/WX    TMP DP  RH WIND       PRES   REMARKS
ALBUQUERQUE    FAIR      74  19  12 W18       29.81S
DOUBLE EAGLE   FAIR      67  23  19 SW16      29.85S
MORIARTY ARPT  FAIR      69  21  16 W12       29.87F
CLINES CORNERS FAIR      61  18  18 W18       29.91S
BELEN          FAIR      68  19  15 W5        29.83R
SOCORRO        FAIR      79  19  10 W21G26    29.78F

$$
NMZ524>526-539-540-250800-
SOUTHCENTRAL MOUNTAINS

CITY           SKY/WX    TMP DP  RH WIND       PRES   REMARKS
RUIDOSO        FAIR      68  18  14 W16       29.96S

$$
NMZ527>531-250800-
NORTHEAST HIGHLANDS/NORTHEAST PLAINS

CITY           SKY/WX    TMP DP  RH WIND       PRES   REMARKS
LAS VEGAS      FAIR      53  25  33 S13       29.85F
RATON          FAIR      56  32  40 E6        29.77S
CLAYTON        FAIR      57  40  52 W12       29.67F

$$
NMZ532>537-250800-
EASTCENTRAL PLAINS

CITY           SKY/WX    TMP DP  RH WIND       PRES   REMARKS
SANTA ROSA     FAIR      60  26  27 SW5       29.72R
TUCUMCARI      FAIR      61  43  51 W9        29.63F
CANNON AFB     FAIR      69  33  26 W10       29.70F
CLOVIS AIRPORT FAIR      66  37  34 W12       29.69S

$$
NMZ028-029-538-250800-
SOUTHEAST PLAINS

CITY           SKY/WX    TMP DP  RH WIND       PRES   REMARKS
ROSWELL        FAIR      66  30  26 SW12      29.66F
ARTESIA        FAIR      75  27  16 SW18      29.67F
CARLSBAD       FAIR      76  30  18 S6        29.66F
HOBBS          FAIR      64  41  42 S10       29.73S


$$



USA.gov is the U.S. government's official web portal to all federal, state and local government web resources and services.